AE0NK Weather Reports


time (UTC)temp
C
wind
direction
speed
KPH
gust
KPH
rain 1hr
cm
rain 24hr
cm
rain mn
cm
humidity
%
barometer
mb
20260906073318 22 118 1.6 6.4 0.00 0.00 0.00 90 1017.9
20260906072814 22 207 0.0 6.4 0.00 0.00 0.00 90 1018.0
20260906072311 22 177 1.6 6.4 0.00 0.00 0.00 90 1018.0
20260906071829 22 148 0.0 6.4 0.00 0.00 0.00 90 1018.1
20260906071327 22 71 0.0 6.4 0.00 0.00 0.00 90 1018.1
20260906070823 22 198 1.6 4.8 0.00 0.00 0.00 90 1018.0
20260906070320 22 134 1.6 3.2 0.00 0.00 0.00 90 1018.1
20260906065814 22 134 0.0 1.6 0.00 0.00 0.00 90 1018.3
20260906065312 22 134 0.0 1.6 0.00 0.00 0.00 90 1018.3
20260906064829 22 134 1.6 1.6 0.00 0.00 0.00 90 1018.2
20260906064326 22 102 0.0 0.0 0.00 0.00 0.00 90 1018.3
20260906063823 22 96 0.0 1.6 0.00 0.00 0.00 90 1018.3
20260906063320 22 96 0.0 6.4 0.00 0.00 0.00 90 1018.2
20260906062816 22 86 1.6 6.4 0.00 0.00 0.00 90 1018.2
20260906062313 22 143 0.0 3.2 0.00 0.00 0.00 90 1018.2
20260906061830 22 143 1.6 3.2 0.00 0.00 0.00 90 1018.2
20260906061325 22 143 1.6 3.2 0.00 0.00 0.00 90 1018.3
20260906060822 22 143 0.0 0.0 0.00 0.00 0.00 90 1018.2
20260906060320 22 143 0.0 0.0 0.00 0.00 0.00 90 1018.2
20260906055815 23 143 0.0 0.0 0.00 0.00 0.00 90 1018.2
20260906055312 23 143 0.0 1.6 0.00 0.00 0.00 89 1018.1
20260906054830 23 143 0.0 1.6 0.00 0.00 0.00 89 1018.2
20260906054326 23 181 0.0 3.2 0.00 0.00 0.00 90 1018.3
20260906053824 23 181 0.0 3.2 0.00 0.00 0.00 89 1018.2
20260906053322 23 114 0.0 3.2 0.00 0.00 0.00 89 1018.0
20260906052821 23 113 1.6 3.2 0.00 0.00 0.00 89 1017.9
20260906052318 23 173 0.0 3.2 0.00 0.00 0.00 89 1017.9
20260906051815 23 173 1.6 3.2 0.00 0.00 0.00 89 1018.0
20260906051313 23 150 0.0 1.6 0.00 0.00 0.00 89 1018.0
20260906050826 23 150 0.0 1.6 0.00 0.00 0.00 89 1017.9
20260906050325 23 214 0.0 0.0 0.00 0.00 0.00 89 1017.9
20260906045811 23 214 0.0 0.0 0.00 0.00 0.00 89 1017.7
20260906045328 23 214 0.0 1.6 0.00 0.00 0.00 89 1017.6
20260906044824 23 214 0.0 1.6 0.00 0.00 0.00 88 1017.5
20260906044321 23 214 0.0 1.6 0.00 0.00 0.00 88 1017.5
20260906043818 23 214 0.0 0.0 0.00 0.00 0.00 88 1017.4
20260906043316 23 214 0.0 0.0 0.00 0.00 0.00 88 1017.6
20260906042813 23 214 0.0 0.0 0.00 0.00 0.00 88 1017.5
20260906042329 23 214 0.0 0.0 0.00 0.00 0.00 88 1017.6
20260906041826 23 214 0.0 0.0 0.00 0.00 0.00 88 1017.6
20260906041324 23 214 0.0 0.0 0.00 0.00 0.00 88 1017.7
20260906040820 23 214 0.0 0.0 0.00 0.00 0.00 88 1017.6
20260906040314 23 214 0.0 0.0 0.00 0.00 0.00 88 1017.6
20260906035830 23 214 0.0 0.0 0.00 0.00 0.00 88 1017.6
20260906035327 23 214 0.0 0.0 0.00 0.00 0.00 88 1017.6
20260906034825 23 214 0.0 0.0 0.00 0.00 0.00 87 1017.6
20260906034323 23 214 0.0 0.0 0.00 0.00 0.00 87 1017.6
20260906033820 23 214 0.0 0.0 0.00 0.00 0.00 86 1017.3
20260906033318 23 214 0.0 0.0 0.00 0.00 0.00 86 1017.3
20260906032814 23 214 0.0 0.0 0.00 0.00 0.00 86 1017.2
20260906032330 24 214 0.0 1.6 0.00 0.00 0.00 87 1017.2
20260906031828 24 214 0.0 3.2 0.00 0.00 0.00 86 1017.2
20260906031325 24 214 0.0 3.2 0.00 0.00 0.00 87 1017.2
20260906030824 24 150 0.0 3.2 0.00 0.00 0.00 86 1017.0
20260906030321 24 150 0.0 3.2 0.00 0.00 0.00 86 1017.2
20260906025816 24 105 0.0 0.0 0.00 0.00 0.00 86 1017.1
20260906025314 24 105 0.0 1.6 0.00 0.00 0.00 86 1017.1
20260906024829 24 105 0.0 1.6 0.00 0.00 0.00 86 1017.0
20260906024327 24 122 0.0 1.6 0.00 0.00 0.00 86 1016.9
20260906023825 24 100 0.0 3.2 0.00 0.00 0.00 86 1016.9
20260906023321 24 141 0.0 3.2 0.00 0.00 0.00 85 1016.9
20260906022820 24 138 0.0 8.0 0.00 0.00 0.00 85 1016.9
20260906022317 25 135 1.6 8.0 0.00 0.00 0.00 85 1016.7
20260906021814 25 150 1.6 3.2 0.00 0.00 0.00 85 1016.7
20260906021313 25 149 0.0 6.4 0.00 0.00 0.00 85 1016.8
20260906020829 25 142 1.6 6.4 0.00 0.00 0.00 85 1016.6
20260906020327 25 107 1.6 3.2 0.00 0.00 0.00 84 1016.6
20260906015822 25 103 0.0 8.0 0.00 0.00 0.00 84 1016.4
20260906015318 25 131 0.0 6.4 0.00 0.00 0.00 84 1016.2
20260906014816 25 115 1.6 8.0 0.00 0.00 0.00 84 1016.1
20260906014314 25 150 1.6 8.0 0.00 0.00 0.00 84 1016.1
20260906013812 25 151 1.6 3.2 0.00 0.00 0.00 84 1016.0
20260906013330 25 122 0.0 1.6 0.00 0.00 0.00 84 1016.0
20260906012824 25 122 0.0 0.0 0.00 0.00 0.00 84 1015.9
20260906012323 26 122 0.0 0.0 0.00 0.00 0.00 83 1015.9
20260906011819 26 122 0.0 0.0 0.00 0.00 0.00 83 1015.9
20260906011315 26 122 0.0 0.0 0.00 0.00 0.00 82 1015.9
20260906010813 26 122 0.0 0.0 0.00 0.00 0.00 82 1015.9
20260906010311 26 122 0.0 0.0 0.00 0.00 0.00 82 1015.9
20260906005827 26 122 0.0 0.0 0.00 0.00 0.00 81 1016.0
20260906005325 26 122 0.0 3.2 0.00 0.00 0.00 81 1015.8
20260906004824 26 122 0.0 3.2 0.00 0.00 0.00 81 1015.7
20260906004322 26 140 0.0 1.6 0.00 0.00 0.00 81 1015.6
20260906003819 26 209 0.0 3.2 0.00 0.00 0.00 80 1015.6
20260906003317 26 209 0.0 3.2 0.00 0.00 0.00 80 1015.6
20260906002816 26 209 0.0 1.6 0.00 0.00 0.00 80 1015.5
20260906002312 26 209 0.0 3.2 0.00 0.00 0.00 80 1015.6
20260906001831 27 209 0.0 3.2 0.00 0.00 0.00 80 1015.6
20260906001328 27 143 1.6 3.2 0.00 0.00 0.00 79 1015.6
20260906000827 27 149 1.6 8.0 0.00 0.00 0.00 79 1015.6
20260906000326 27 154 1.6 8.0 0.00 0.00 0.00 79 1015.6
20260905235820 27 99 1.6 3.2 0.00 0.00 0.00 80 1015.5
20260905235319 27 189 0.0 3.2 0.00 0.00 0.00 80 1015.6
20260905234817 28 189 0.0 8.0 0.00 0.00 0.00 79 1015.5
20260905234315 28 238 3.2 8.0 0.00 0.00 0.00 79 1015.5
20260905233814 28 156 1.6 6.4 0.00 0.00 0.00 79 1015.5
20260905233330 28 243 1.6 12.9 0.00 0.00 0.00 79 1015.5
20260905232829 28 221 1.6 12.9 0.00 0.00 0.00 79 1015.5
20260905232326 29 159 1.6 8.0 0.00 0.00 0.00 78 1015.3
20260905231824 29 315 1.6 12.9 0.00 0.00 0.00 78 1015.4
20260905231320 30 167 3.2 12.9 0.00 0.00 0.00 77 1015.2
20260905230818 30 184 3.2 8.0 0.00 0.00 0.00 76 1015.2
20260905230317 30 115 0.0 8.0 0.00 0.00 0.00 77 1015.1
20260905225812 30 144 1.6 9.7 0.00 0.00 0.00 76 1015.1
20260905225329 30 180 3.2 9.7 0.00 0.00 0.00 75 1015.1
20260905224827 31 71 1.6 8.0 0.00 0.00 0.00 75 1015.1
20260905224325 31 99 1.6 8.0 0.00 0.00 0.00 75 1014.9
20260905223821 31 195 1.6 3.2 0.00 0.00 0.00 74 1014.9
20260905223318 31 329 0.0 11.3 0.00 0.00 0.00 75 1014.7
20260905222814 31 214 1.6 8.0 0.00 0.00 0.00 74 1014.8
20260905222312 31 116 1.6 8.0 0.00 0.00 0.00 73 1014.7
20260905221831 31 252 0.0 6.4 0.00 0.00 0.00 72 1014.6
20260905221327 31 187 1.6 6.4 0.00 0.00 0.00 72 1014.7
20260905220826 31 126 1.6 8.0 0.00 0.00 0.00 71 1014.7
20260905220323 31 139 1.6 8.0 0.00 0.00 0.00 71 1014.7
20260905215816 31 142 0.0 3.2 0.00 0.00 0.00 71 1014.8
20260905215315 31 115 0.0 6.4 0.00 0.00 0.00 70 1014.8
20260905214812 32 307 0.0 3.2 0.00 0.00 0.00 72 1014.9
20260905214310 32 329 1.6 3.2 0.00 0.00 0.00 72 1014.9
20260905213825 32 242 0.0 3.2 0.00 0.00 0.00 71 1014.8
20260905213323 32 74 0.0 1.6 0.00 0.00 0.00 71 1014.9
20260905212820 32 74 0.0 6.4 0.00 0.00 0.00 70 1014.9
20260905212318 32 317 1.6 6.4 0.00 0.00 0.00 69 1014.9
20260905211817 32 45 1.6 6.4 0.00 0.00 0.00 71 1014.9
20260905211314 32 182 1.6 6.4 0.00 0.00 0.00 72 1014.8
20260905210811 32 5 0.0 3.2 0.00 0.00 0.00 72 1014.9
20260905210310 32 340 1.6 9.7 0.00 0.00 0.00 71 1014.9
20260905205824 32 288 3.2 9.7 0.00 0.00 0.00 70 1014.9
20260905205322 32 333 1.6 6.4 0.00 0.00 0.00 71 1014.9
20260905204818 32 220 0.0 3.2 0.00 0.00 0.00 71 1015.0
20260905204314 32 220 1.6 6.4 0.00 0.00 0.00 69 1015.0
20260905203813 32 302 3.2 6.4 0.00 0.00 0.00 70 1015.1
20260905203311 32 298 1.6 8.0 0.00 0.00 0.00 72 1015.1
20260905202829 32 281 4.8 8.0 0.00 0.00 0.00 70 1015.0
20260905202327 32 329 1.6 8.0 0.00 0.00 0.00 71 1015.1
20260905201826 32 348 3.2 8.0 0.00 0.00 0.00 71 1015.1
20260905201322 32 117 0.0 9.7 0.00 0.00 0.00 73 1015.1
20260905200821 32 319 4.8 9.7 0.00 0.00 0.00 72 1015.1
20260905200319 31 24 1.6 8.0 0.00 0.00 0.00 73 1015.2
20260905195815 32 298 1.6 3.2 0.00 0.00 0.00 72 1015.3
20260905195311 32 13 0.0 9.7 0.00 0.00 0.00 73 1015.4
20260905194828 32 298 4.8 9.7 0.00 0.00 0.00 69 1015.5
20260905194325 32 278 1.6 6.4 0.00 0.00 0.00 71 1015.6
20260905193823 32 302 1.6 3.2 0.00 0.00 0.00 72 1015.6
20260905193320 32 160 0.0 3.2 0.00 0.00 0.00 72 1015.6
20260905192818 32 327 1.6 6.4 0.00 0.00 0.00 71 1015.6
20260905192314 32 115 1.6 6.4 0.00 0.00 0.00 72 1015.6
20260905191811 31 183 0.0 6.4 0.00 0.00 0.00 77 1015.8
20260905191329 31 92 1.6 6.4 0.00 0.00 0.00 74 1015.5
20260905190827 31 144 0.0 3.2 0.00 0.00 0.00 72 1015.6
20260905190325 31 245 0.0 8.0 0.00 0.00 0.00 74 1015.7
20260905185820 31 290 0.0 8.0 0.00 0.00 0.00 76 1015.9
20260905185316 31 290 1.6 6.4 0.00 0.00 0.00 73 1016.0
20260905184814 31 122 1.6 6.4 0.00 0.00 0.00 74 1016.1
20260905184313 31 176 1.6 3.2 0.00 0.00 0.00 75 1016.2
20260905183810 30 176 0.0 1.6 0.00 0.00 0.00 78 1016.1
20260905183326 30 176 0.0 6.4 0.00 0.00 0.00 77 1016.1
20260905182822 30 136 0.0 6.4 0.00 0.00 0.00 74 1016.0
20260905182318 30 105 0.0 6.4 0.00 0.00 0.00 78 1016.2
20260905181817 30 160 0.0 3.2 0.00 0.00 0.00 79 1016.1
20260905181317 30 160 0.0 3.2 0.00 0.00 0.00 78 1016.1
20260905180813 30 160 0.0 3.2 0.00 0.00 0.00 76 1016.1
20260905180310 30 146 1.6 6.4 0.00 0.00 0.00 75 1016.0
20260905175824 31 73 1.6 6.4 0.00 0.00 0.00 74 1016.1
20260905175320 30 202 1.6 6.4 0.00 0.00 0.00 75 1016.1
20260905174819 30 224 1.6 6.4 0.00 0.00 0.00 76 1016.0
20260905174317 31 222 1.6 6.4 0.00 0.00 0.00 77 1016.0
20260905173813 31 135 1.6 9.7 0.00 0.00 0.00 75 1016.0
20260905173313 30 5 1.6 9.7 0.00 0.00 0.00 78 1016.1
20260905172810 30 170 0.0 8.0 0.00 0.00 0.00 77 1016.1
20260905172327 31 124 1.6 8.0 0.00 0.00 0.00 75 1016.2
20260905171825 30 149 1.6 6.4 0.00 0.00 0.00 77 1016.1
20260905171321 30 173 3.2 6.4 0.00 0.00 0.00 76 1016.3
20260905170818 30 252 1.6 6.4 0.00 0.00 0.00 77 1016.3
20260905170314 30 142 1.6 6.4 0.00 0.00 0.00 77 1016.3
20260905165830 30 200 0.0 6.4 0.00 0.00 0.00 79 1016.3
20260905165326 30 120 1.6 6.4 0.00 0.00 0.00 78 1016.4
20260905164824 30 165 1.6 6.4 0.00 0.00 0.00 78 1016.4
20260905164322 30 146 1.6 3.2 0.00 0.00 0.00 80 1016.5
20260905163821 30 261 1.6 3.2 0.00 0.00 0.00 79 1016.5
20260905163318 30 92 0.0 6.4 0.00 0.00 0.00 80 1016.5
20260905162816 30 325 1.6 4.8 0.00 0.00 0.00 78 1016.5
20260905162314 30 173 1.6 6.4 0.00 0.00 0.00 79 1016.6
20260905161811 30 290 0.0 6.4 0.00 0.00 0.00 80 1016.5
20260905161326 30 258 1.6 4.8 0.00 0.00 0.00 78 1016.5
20260905160824 30 50 1.6 4.8 0.00 0.00 0.00 79 1016.5
20260905160320 30 149 1.6 6.4 0.00 0.00 0.00 80 1016.4
20260905155814 30 154 1.6 3.2 0.00 0.00 0.00 80 1016.4
20260905155330 30 300 1.6 3.2 0.00 0.00 0.00 80 1016.4
20260905154826 30 155 0.0 1.6 0.00 0.00 0.00 79 1016.3
20260905154324 30 155 0.0 6.4 0.00 0.00 0.00 80 1016.3
20260905153819 30 144 0.0 6.4 0.00 0.00 0.00 80 1016.3
20260905153317 29 194 0.0 1.6 0.00 0.00 0.00 80 1016.3
20260905152814 29 194 0.0 1.6 0.00 0.00 0.00 81 1016.3
20260905152312 29 239 0.0 1.6 0.00 0.00 0.00 81 1016.2
20260905151829 29 239 0.0 1.6 0.00 0.00 0.00 81 1016.3
20260905151325 29 279 0.0 3.2 0.00 0.00 0.00 81 1016.3
20260905150824 28 254 0.0 3.2 0.00 0.00 0.00 82 1016.3
20260905150320 28 332 1.6 3.2 0.00 0.00 0.00 81 1016.2
20260905145813 28 265 0.0 3.2 0.00 0.00 0.00 83 1016.1
20260905145327 28 299 1.6 3.2 0.00 0.00 0.00 82 1016.1
20260905144823 28 323 0.0 1.6 0.00 0.00 0.00 84 1016.0
20260905144319 28 306 0.0 3.2 0.00 0.00 0.00 83 1016.0
20260905143816 28 287 0.0 3.2 0.00 0.00 0.00 84 1015.9
20260905143312 28 306 0.0 0.0 0.00 0.00 0.00 85 1015.9
20260905142825 28 323 0.0 1.6 0.00 0.00 0.00 85 1015.8
20260905142320 27 323 0.0 3.2 0.00 0.00 0.00 86 1015.8
20260905141817 27 272 1.6 3.2 0.00 0.00 0.00 86 1015.7
20260905141314 27 308 0.0 1.6 0.00 0.00 0.00 87 1015.6
20260905140810 27 301 0.0 3.2 0.00 0.00 0.00 89 1015.6
20260905140326 26 301 1.6 6.4 0.00 0.00 0.00 89 1015.6
20260905135820 26 291 0.0 6.4 0.00 0.00 0.00 89 1015.6
20260905135317 26 290 0.0 3.2 0.00 0.00 0.00 90 1015.6
20260905134815 26 290 1.6 6.4 0.00 0.00 0.00 90 1015.6
20260905134312 26 287 0.0 6.4 0.00 0.00 0.00 91 1015.4
20260905133829 26 165 0.0 1.6 0.00 0.00 0.00 92 1015.4
20260905133327 25 165 0.0 0.0 0.00 0.00 0.00 92 1015.4
20260905132821 25 165 0.0 1.6 0.00 0.00 0.00 92 1015.3
20260905132319 25 165 0.0 0.0 0.00 0.00 0.00 92 1015.2
20260905131816 25 165 0.0 0.0 0.00 0.00 0.00 93 1015.1
20260905131315 25 165 0.0 0.0 0.00 0.00 0.00 93 1015.2
20260905130813 25 165 0.0 0.0 0.00 0.00 0.00 93 1015.1
20260905130311 25 165 0.0 0.0 0.00 0.00 0.00 93 1015.1
20260905125825 25 165 0.0 0.0 0.00 0.00 0.00 93 1015.1
20260905125323 25 165 0.0 0.0 0.00 0.00 0.00 93 1015.1
20260905124820 24 165 0.0 0.0 0.00 0.00 0.00 93 1014.9
20260905124317 24 165 0.0 0.0 0.00 0.00 0.00 93 1014.9
20260905123814 24 165 0.0 0.0 0.00 0.00 0.00 93 1014.9
20260905123329 24 165 0.0 0.0 0.00 0.00 0.00 93 1014.8
20260905122826 24 165 0.0 0.0 0.00 0.00 0.00 93 1014.8
20260905122324 24 165 0.0 0.0 0.00 0.00 0.00 93 1014.8
20260905121820 24 165 0.0 0.0 0.00 0.00 0.00 93 1014.7
20260905121317 23 165 0.0 0.0 0.00 0.00 0.00 93 1014.8
20260905120815 23 165 0.0 0.0 0.00 0.00 0.00 93 1014.6
20260905120312 23 165 0.0 0.0 0.00 0.00 0.00 93 1014.5
20260905115829 23 165 0.0 0.0 0.00 0.00 0.00 93 1014.3
20260905115325 23 165 0.0 0.0 0.00 0.00 0.00 92 1014.6
20260905114822 23 165 0.0 0.0 0.00 0.00 0.00 92 1014.6
20260905114320 23 165 0.0 0.0 0.00 0.00 0.00 92 1014.6
20260905113816 23 165 0.0 0.0 0.00 0.00 0.00 92 1014.6
20260905113313 23 165 0.0 0.0 0.00 0.00 0.00 92 1014.4
20260905112813 23 165 0.0 0.0 0.00 0.00 0.00 92 1014.5
20260905112330 23 165 0.0 0.0 0.00 0.00 0.00 92 1014.3
20260905111828 23 165 0.0 0.0 0.00 0.00 0.00 92 1014.3
20260905111326 23 165 0.0 0.0 0.00 0.00 0.00 92 1014.3
20260905110825 23 165 0.0 0.0 0.00 0.00 0.00 92 1014.3
20260905110323 23 165 0.0 0.0 0.00 0.00 0.00 92 1014.3
20260905105818 23 165 0.0 0.0 0.00 0.00 0.00 92 1014.3
20260905105315 24 165 0.0 0.0 0.00 0.00 0.00 92 1014.1
20260905104810 24 165 0.0 0.0 0.00 0.00 0.00 92 1014.2
20260905104327 24 165 0.0 0.0 0.00 0.00 0.00 92 1014.2
20260905103825 24 165 0.0 0.0 0.00 0.00 0.00 92 1014.1
20260905103323 24 165 0.0 0.0 0.00 0.00 0.00 92 1014.2
20260905102822 24 165 0.0 0.0 0.00 0.00 0.00 92 1014.2
20260905102320 24 165 0.0 0.0 0.00 0.00 0.00 92 1014.1
20260905101817 24 165 0.0 0.0 0.00 0.00 0.00 92 1014.1
20260905101315 24 165 0.0 0.0 0.00 0.00 0.00 92 1014.2
20260905100813 24 165 0.0 0.0 0.00 0.00 0.00 92 1014.2
20260905100312 24 165 0.0 0.0 0.00 0.00 0.00 91 1014.2
20260905095828 24 165 0.0 0.0 0.00 0.00 0.00 91 1014.3
20260905095327 24 165 0.0 0.0 0.00 0.00 0.00 91 1014.3
20260905094814 24 165 0.0 0.0 0.00 0.00 0.00 91 1014.3
20260905094312 24 165 0.0 0.0 0.00 0.00 0.00 91 1014.2
20260905093830 24 165 0.0 0.0 0.00 0.00 0.00 91 1014.2
20260905093327 24 165 0.0 0.0 0.00 0.00 0.00 91 1014.3
20260905092823 24 165 0.0 0.0 0.00 0.00 0.00 91 1014.3
20260905092321 24 165 0.0 0.0 0.00 0.00 0.00 91 1014.3
20260905091819 24 165 0.0 0.0 0.00 0.00 0.00 91 1014.4
20260905091316 24 165 0.0 0.0 0.00 0.00 0.00 91 1014.4
20260905090813 24 165 0.0 0.0 0.00 0.00 0.00 91 1014.4
20260905090330 25 165 0.0 0.0 0.00 0.00 0.00 91 1014.4
20260905085826 25 165 0.0 0.0 0.00 0.00 0.00 91 1014.5
20260905085324 25 165 0.0 0.0 0.00 0.00 0.00 91 1014.5
20260905084820 25 165 0.0 0.0 0.00 0.00 0.00 91 1014.4
20260905084318 25 165 0.0 0.0 0.00 0.00 0.00 91 1014.4
20260905083815 25 165 0.0 1.6 0.00 0.00 0.00 91 1014.4
20260905083312 25 165 0.0 1.6 0.00 0.00 0.00 91 1014.3
20260905082828 25 165 0.0 0.0 0.00 0.00 0.00 91 1014.4
20260905082323 25 165 0.0 0.0 0.00 0.00 0.00 91 1014.4
20260905081821 25 165 0.0 0.0 0.00 0.00 0.00 90 1014.5
20260905081319 25 165 0.0 0.0 0.00 0.00 0.00 90 1014.4
20260905080817 25 165 0.0 0.0 0.00 0.00 0.00 90 1014.4
20260905080315 25 165 0.0 0.0 0.00 0.00 0.00 90 1014.4
20260905075829 25 165 0.0 0.0 0.00 0.00 0.00 90 1014.4
20260905075328 25 165 0.0 0.0 0.00 0.00 0.00 90 1014.4
20260905074826 25 165 0.0 0.0 0.00 0.00 0.00 89 1014.4
20260905074324 25 165 0.0 0.0 0.00 0.00 0.00 89 1014.4
20260905073822 25 165 0.0 0.0 0.00 0.00 0.00 89 1014.5